Temp
19 19 18 18 18 17 17 17 17 17 17 16 16 16 16 15 16 16 15 14 13 12 12 12 12 12 12 13 13 12 13 13 13 13 13 14 13 13 14 14 14 14 14
19 17 17 17 17 16 16 16 16 16 16 15 15 15 15 15 15 15 15 13 13 12 11 11 11 11 11 12 12 12 12 12 12 12 12 12 13 13 13 13 13 13 14
17 16 16 16 16 15 15 15 15 15 15 15 15 15 14 14 14 14 14 13 13 12 12 12 12 11 11 10 11 11 11 11 11 11 11 11 12 13 13 12 12 13 13
16 16 16 16 15 15 15 14 13 14 14 14 14 14 14 14 14 14 13 13 12 12 12 11 11 11 10 10 10 10 10 10 10 10 10 11 11 12 12 12 12 12 12
17 17 16 15 14 14 13 14 13 12 12 12 13 14 13 13 13 13 13 13 12 11 11 10 10 10 10 9 9 9 9 9 9 9 10 10 10 11 12 11 11 12 12
16 15 15 14 14 13 13 13 12 12 11 11 12 14 13 13 13 13 13 13 12 11 10 10 10 10 9 9 9 8 8 8 8 8 9 9 9 10 11 11 11 11 12
15 15 14 14 13 13 12 12 12 11 11 10 13 13 14 13 13 13 12 12 12 11 10 10 9 9 9 8 8 7 7 7 7 7 8 8 9 9 10 10 11 11 11
14 14 13 13 12 12 11 11 10 12 11 9 10 12 14 14 13 13 12 11 11 10 10 9 8 8 8 7 7 7 6 6 6 7 7 8 8 9 9 10 10 11 11
13 13 12 12 11 11 10 10 10 10 10 10 9 10 12 13 11 13 12 11 11 10 9 8 8 8 7 7 6 6 6 5 5 5 6 7 7 8 9 9 10 10 10
12 12 11 11 11 10 10 9 9 9 9 10 10 9 9 9 10 10 12 11 10 9 9 8 7 6 6 6 6 5 5 4 4 4 5 5 6 7 8 8 9 9 10
11 11 11 10 10 10 9 9 8 8 8 8 8 8 8 8 8 8 8 10 9 9 8 8 7 6 6 6 5 5 4 3 3 3 4 5 5 6 7 7 8 8 8
10 10 10 10 9 9 8 8 7 7 7 7 7 7 7 7 8 7 7 7 7 7 7 7 7 6 6 5 4 4 3 2 2 3 3 4 5 5 5 6 6 6 6
10 9 9 9 9 8 8 7 7 7 7 7 6 6 6 6 6 6 6 6 6 6 6 7 7 7 6 5 4 3 2 2 2 3 3 3 4 4 4 4 4 4 4
10 9 9 9 8 7 7 7 7 6 6 6 5 5 5 5 5 5 4 4 4 5 5 6 5 6 4 4 3 3 2 2 2 2 2 2 3 3 3 3 3 3 3
10 9 8 8 7 7 7 7 7 6 6 6 5 5 5 5 4 4 4 3 3 3 3 4 5 4 3 3 2 2 2 2 2 2 2 2 2 2 2 2 2 2 2
9 8 8 7 7 7 6 6 6 6 5 5 5 4 4 4 4 3 3 3 3 2 2 3 3 3 2 2 1 1 1 1 1 1 1 1 1 1 1 1 1 1 1
8 8 7 7 7 7 6 6 6 5 5 5 4 4 3 2 2 2 2 2 2 2 2 2 2 1 1 1 1 1 0 0 0 1 1 1 1 1 1 0 1 1 1
8 7 7 7 6 6 6 6 5 5 5 4 4 3 2 2 2 2 2 1 1 1 1 1 1 1 1 1 1 0 0 0 0 0 0 0 0 0 0 0 0 0 1
7 6 6 6 6 5 5 5 4 4 4 4 3 2 2 1 1 1 1 1 1 1 1 1 0 0 0 -0 -1 -0 -0 0 -0 -0 -0 -1 -1 -0 -0 0 0 0 0
6 6 5 5 4 4 3 3 3 3 3 3 2 2 1 1 0 0 -1 -1 -0 -0 -0 -1 -1 -1 -1 -1 -0 -0 -0 -1 -1 -1 -2 -1 -1 -1 -0 -0 -1 -1 -1
5 5 4 4 3 3 3 2 2 2 2 2 2 2 1 1 -0 -1 -1 -1 -1 -1 -2 -2 -2 -2 -1 -1 -1 -1 -1 -2 -2 -2 -2 -2 -1 -2 -2 -2 -1 -1 -1
4 4 3 3 3 2 2 0 -0 0 1 1 1 1 0 -0 -0 -0 -1 -1 -1 -2 -2 -2 -2 -2 -2 -1 -2 -2 -3 -3 -3 -3 -2 -3 -3 -2 -2 -2 -1 -1 -1
4 3 3 2 2 2 1 -1 -1 -1 -0 1 0 -0 -0 -0 -1 -1 -1 -1 -2 -2 -2 -2 -1 -2 -2 -2 -3 -4 -3 -3 -4 -3 -3 -3 -3 -2 -2 -2 -2 -1 -2
3 3 2 2 1 1 0 -2 -2 -1 -0 0 0 -0 -0 -1 -1 -1 -2 -3 -3 -3 -2 -2 -2 -2 -3 -4 -4 -4 -4 -4 -4 -4 -3 -3 -3 -3 -2 -3 -3 -2 -1
2 2 1 1 1 1 -0 -2 -2 -2 -1 -0 0 -0 -0 -1 -1 -1 -2 -3 -3 -2 -2 -2 -3 -3 -3 -3 -3 -3 -4 -4 -4 -4 -4 -4 -3 -3 -4 -4 -3 -1 -0
1 1 1 1 0 -1 -1 -2 -2 -2 -1 -1 -1 -1 -1 -1 -1 -1 -2 -3 -3 -3 -3 -4 -4 -4 -3 -3 -3 -3 -3 -5 -5 -5 -4 -4 -5 -5 -4 -3 -2 -3 -3
Height
795 796 798 800 801 802 803 804 804 803 804 802 800 799 799 799 799 798 796 796 796 797 796 795 794 794 792 792 792 791 789 788 787 786 785 784 783 782 781 780 779 779 778
794 796 797 798 799 801 803 804 804 803 802 801 800 799 798 799 798 798 797 796 796 795 795 794 794 793 792 791 791 791 790 788 787 786 784 783 782 781 780 779 778 778 777
793 794 795 797 799 802 802 802 803 803 801 799 799 798 798 798 798 798 797 797 797 796 795 793 793 792 791 790 789 789 788 787 786 784 783 782 781 780 779 777 776 776 775
791 793 795 797 800 801 802 802 802 802 801 800 798 798 797 797 797 798 797 797 798 797 795 793 793 792 790 788 787 786 786 785 783 782 780 779 778 777 776 775 774 773 772
788 791 793 797 800 801 802 802 802 801 801 799 798 797 795 796 796 797 797 797 797 796 796 794 793 791 789 787 786 784 783 782 781 779 778 776 774 773 772 772 771 770 769
788 791 795 797 799 801 803 803 802 802 801 799 797 795 795 796 795 796 796 796 796 796 796 794 793 791 789 787 785 783 781 779 778 776 775 773 771 769 768 768 767 766 765
788 791 794 797 800 801 802 803 802 802 801 799 797 796 794 795 795 795 796 796 796 795 795 793 792 789 787 784 782 781 779 777 775 773 772 769 767 766 764 763 762 761 760
787 791 793 797 799 801 802 803 801 802 802 801 800 797 793 793 794 795 794 795 795 794 793 792 790 788 785 782 780 778 777 775 772 771 769 766 764 762 760 758 757 755 755
787 790 793 795 798 801 801 803 803 802 803 802 802 802 797 794 797 792 793 794 794 793 792 790 788 786 783 780 778 776 775 773 770 768 765 762 759 757 755 753 751 749 748
786 789 792 795 797 800 801 803 803 804 804 803 803 802 802 803 802 796 792 793 792 791 790 787 785 783 780 778 776 774 772 769 767 764 761 758 755 752 750 747 745 743 741
784 790 791 795 797 799 801 802 802 804 805 805 804 803 802 801 802 801 795 792 792 790 787 784 782 780 778 777 774 773 770 768 765 761 757 754 750 747 744 741 739 736 735
783 788 791 794 797 798 799 800 801 802 805 805 804 803 803 802 800 800 796 792 789 786 783 781 778 776 775 773 771 769 767 764 760 756 752 749 745 742 739 736 733 731 729
781 786 789 793 796 797 798 799 800 801 803 804 804 803 802 801 801 799 797 792 787 783 780 777 775 772 771 769 768 765 762 758 754 751 747 743 739 737 734 731 729 726 723
779 784 788 792 794 796 798 799 799 800 802 803 803 802 800 800 799 797 795 792 785 780 778 773 772 769 768 767 764 761 757 753 750 745 741 738 734 730 727 724 721 718 716
778 783 787 791 793 795 797 798 799 800 801 801 801 800 799 798 796 795 793 791 788 779 773 770 768 768 766 764 761 757 752 748 744 740 736 732 728 724 721 717 713 710 707
777 782 787 790 792 795 796 797 798 799 799 799 798 797 796 795 793 791 790 788 785 781 771 770 767 766 763 760 756 752 748 743 739 735 731 726 722 718 714 710 706 702 698
776 781 785 789 792 794 795 797 798 798 798 797 796 795 793 793 791 788 786 784 781 779 771 765 764 762 759 754 750 746 742 738 732 728 723 719 715 710 706 702 698 694 690
776 780 784 788 790 792 794 796 797 797 796 794 793 792 791 790 788 785 782 780 777 774 770 761 759 756 753 749 744 740 736 731 725 720 716 711 706 702 697 693 689 685 680
776 780 783 786 788 791 793 794 795 795 794 792 791 790 789 787 784 782 779 777 773 770 766 759 753 752 747 744 738 734 728 723 719 715 709 705 700 693 689 684 680 675 671
776 780 783 785 787 790 791 793 793 792 791 789 788 787 785 783 781 779 777 774 770 766 762 757 751 745 742 739 734 727 721 718 713 710 702 698 692 686 680 675 671 666 662
777 780 783 785 788 789 790 790 790 790 788 786 784 782 781 779 777 776 773 770 767 763 759 754 747 741 736 731 728 724 718 713 706 704 694 690 685 679 671 666 661 656 652
777 780 784 785 787 788 787 787 788 787 785 783 781 779 777 775 773 771 769 766 764 759 754 749 743 738 732 728 724 720 716 708 699 696 691 681 680 668 663 657 652 648 643
779 782 784 785 786 786 785 785 785 784 782 780 778 776 774 772 769 767 765 762 759 755 750 745 738 734 728 725 722 715 710 706 698 690 688 672 670 660 655 648 643 638 634
780 782 783 784 784 784 783 783 783 781 779 777 775 773 770 768 766 763 760 756 752 748 744 740 735 730 725 720 715 711 705 698 691 685 683 669 663 653 645 640 633 627 623
780 781 782 782 783 783 782 781 780 778 776 773 771 769 766 764 762 759 755 750 746 741 738 734 729 724 718 714 710 705 699 695 684 677 675 668 657 647 640 628 623 620 616
779 780 781 781 781 781 780 779 778 776 773 770 768 765 763 760 757 755 751 746 740 736 732 727 722 717 713 708 705 701 696 690 684 671 667 664 655 652 631 622 617 613 605
Wind_Speed
9 8 7 6 5 4 4 4 5 6 8 9 9 8 8 7 6 3 3 4 2 6 9 11 11 12 12 12 13 14 14 14 14 14 13 12 11 12 12 12 12 10 10
11 10 8 7 6 5 4 4 6 7 7 9 9 8 7 6 4 2 0 4 3 2 5 9 10 11 12 12 12 13 13 13 13 14 14 14 14 13 13 12 12 12 13
10 10 10 8 7 5 4 4 5 6 7 8 8 7 6 5 3 1 0 1 5 7 8 7 9 10 11 13 13 13 13 13 14 14 15 16 16 16 16 15 15 15 15
14 13 12 9 7 5 4 4 6 6 7 8 9 7 6 5 3 1 2 2 2 3 8 11 12 14 13 14 13 13 14 14 15 16 17 18 17 17 15 15 17 17 17
17 15 12 10 7 6 5 5 5 7 8 10 9 8 5 2 4 3 0 3 4 4 5 9 14 14 17 13 14 14 14 16 17 18 19 20 20 19 18 18 19 19 19
17 15 12 11 8 7 6 5 5 6 8 11 9 6 2 1 3 3 3 5 3 5 6 10 14 11 12 13 14 13 15 18 18 18 18 20 20 21 21 21 22 21 22
21 16 14 12 10 8 7 6 5 6 8 13 7 6 2 1 3 4 2 3 6 4 8 11 13 13 14 15 13 15 16 16 16 19 20 21 21 21 21 22 23 24 25
21 17 15 13 10 9 7 7 8 5 6 10 7 6 2 3 3 5 8 5 3 8 10 15 14 13 17 15 16 15 16 16 19 19 22 22 22 22 22 23 25 25 26
21 18 15 14 11 8 7 6 6 7 5 5 7 4 2 2 8 3 3 6 8 11 14 17 16 16 19 15 15 16 15 17 20 25 26 26 26 26 27 27 28 29 29
20 17 15 13 11 9 8 6 5 5 4 4 1 4 2 2 2 4 3 13 11 13 18 16 17 22 16 17 16 17 16 20 26 25 26 27 27 28 29 30 32 33 35
20 16 14 13 11 9 8 6 5 4 3 2 2 2 3 4 7 6 8 8 17 16 17 14 19 18 15 15 16 16 18 25 24 27 28 28 28 29 31 33 34 36 37
19 15 14 12 10 9 7 5 4 3 1 1 2 2 3 3 6 7 6 13 16 18 18 23 16 16 15 16 16 18 24 25 28 27 28 28 29 30 31 32 34 35 35
20 17 15 12 10 8 7 5 3 2 1 2 3 4 5 7 9 12 14 14 11 19 18 17 20 15 19 15 18 23 27 27 28 28 29 30 31 33 34 34 35 35 36
20 18 15 12 10 8 6 4 2 1 2 3 5 6 7 9 10 12 14 14 10 11 18 18 21 15 12 21 24 26 28 28 29 30 31 33 35 35 35 36 37 38 39
20 17 15 12 10 7 5 3 1 2 3 5 6 8 9 10 12 13 14 15 14 10 10 14 19 18 24 24 24 28 29 30 30 32 34 35 35 36 37 38 40 39 39
20 18 14 11 9 6 4 2 2 3 5 7 7 8 10 11 13 14 15 16 17 18 11 20 22 24 25 25 28 28 29 30 29 33 35 36 37 38 37 38 38 39 39
19 17 14 11 8 5 3 2 3 5 7 8 8 10 11 13 15 15 16 16 18 18 14 24 24 24 27 28 29 27 26 30 34 35 36 34 35 36 36 37 37 38 39
17 16 13 10 6 4 2 3 6 7 8 9 10 11 13 14 15 15 16 16 18 20 23 22 25 26 26 29 27 28 26 31 33 30 31 35 36 36 37 37 38 38 38
17 14 11 9 6 3 1 4 7 9 10 11 12 13 14 14 16 15 17 19 20 22 23 25 27 27 28 27 23 29 32 25 25 30 33 35 37 38 36 35 36 38 38
15 12 10 7 5 2 2 5 7 10 12 13 14 14 15 15 16 16 19 20 21 24 24 24 27 29 26 24 28 26 23 25 27 29 35 35 33 35 33 35 39 39 38
13 11 9 6 2 0 2 5 8 11 13 15 15 15 15 15 16 18 20 20 23 23 24 25 26 21 25 27 22 24 25 28 32 26 36 31 26 36 37 36 36 35 34
12 9 6 4 1 1 7 7 8 11 14 15 16 16 16 17 17 18 20 21 23 26 27 25 23 24 26 25 25 26 29 22 15 27 21 37 32 36 35 34 34 36 36
10 7 4 1 1 3 8 7 10 12 14 15 15 16 17 17 18 18 19 22 25 26 24 33 27 23 26 28 30 29 26 27 27 35 32 34 32 33 34 36 33 36 39
7 4 2 1 3 5 11 8 11 13 14 15 15 16 17 18 18 19 22 24 22 27 26 25 24 27 29 32 28 28 30 30 32 31 25 19 33 33 33 34 40 34 29
5 2 1 3 4 5 8 10 12 13 15 16 16 16 18 18 18 21 24 24 26 26 26 25 27 31 32 31 28 26 24 22 17 27 27 26 26 31 36 38 27 22 24
3 2 2 4 5 6 7 10 12 13 15 15 16 18 18 18 20 23 24 26 26 26 26 30 29 28 25 25 24 23 22 20 21 19 23 19 26 22 7 23 20 35 30
Wind_Direction
170 151 145 134 113 81 47 19 3 349 333 333 333 329 326 326 324 324 302 326 66 47 44 41 34 27 26 19 13 10 8 3 2 1 360 355 345 340 339 336 331 330 326
175 157 152 126 104 85 60 28 359 345 338 335 331 327 324 322 325 322 303 326 350 356 29 37 28 21 14 8 0 355 355 353 346 343 338 334 326 323 323 319 316 314 312
157 156 152 131 111 99 73 34 7 351 347 342 331 325 320 314 299 299 106 39 337 345 345 350 356 354 352 353 346 340 335 339 336 330 327 323 318 310 302 302 304 302 299
166 161 143 128 124 102 78 50 26 8 355 345 335 324 315 298 232 173 100 53 347 356 337 327 339 340 339 340 343 340 331 330 329 323 321 317 313 307 293 295 299 296 291
172 165 149 131 120 103 80 62 36 23 3 348 335 327 335 293 197 194 222 339 320 343 331 328 339 348 332 340 341 334 329 324 321 318 313 313 308 305 288 289 293 290 285
156 145 140 133 120 105 87 66 51 31 12 348 334 330 331 300 197 227 289 308 302 335 335 334 334 328 330 329 327 329 327 323 321 320 314 311 306 302 289 286 289 287 283
161 146 140 131 123 112 93 67 51 34 17 1 350 350 257 168 246 246 328 334 315 336 327 331 329 327 326 326 323 325 326 326 324 321 317 313 307 300 291 286 286 284 281
159 149 141 134 127 115 96 67 53 41 39 22 359 299 1 175 147 301 298 313 273 332 325 328 323 320 323 319 318 324 323 324 325 323 318 313 308 302 294 289 286 284 283
155 151 143 137 130 123 104 80 61 53 47 46 37 12 331 349 352 250 289 318 293 316 319 320 318 315 319 313 316 317 317 322 323 319 314 310 305 299 293 289 286 285 284
154 148 143 137 130 125 116 99 75 59 43 42 109 40 31 330 319 310 307 316 307 307 311 308 308 315 311 313 310 311 310 317 320 318 314 309 304 299 294 290 287 285 284
155 151 141 139 134 131 124 112 91 68 42 25 16 351 315 274 255 261 295 302 307 305 305 297 302 297 296 298 304 301 306 313 310 310 309 308 304 301 297 294 291 288 287
150 150 144 143 141 136 125 114 103 97 62 345 315 296 297 296 307 294 296 300 301 303 309 298 289 285 292 298 301 305 308 308 308 306 306 303 301 298 297 295 292 290 288
155 157 150 148 148 144 134 131 130 125 267 280 277 284 282 277 282 285 290 292 297 302 301 299 299 297 300 300 302 306 306 306 306 306 305 304 303 301 299 296 293 289 288
158 157 151 152 148 141 140 143 140 179 260 267 272 279 283 281 283 287 291 300 299 292 298 302 305 298 304 307 307 305 306 305 304 303 302 300 299 298 297 295 292 291 290
152 152 151 151 146 146 148 159 194 247 262 271 277 279 281 286 289 288 288 289 292 299 301 307 294 313 310 308 304 306 302 301 300 299 299 298 296 296 295 294 292 291 290
151 150 151 149 149 150 157 183 238 257 267 274 275 286 291 293 293 291 288 285 284 286 290 297 298 302 305 306 305 303 302 302 300 298 297 295 294 294 293 291 291 290 290
149 148 149 149 151 156 172 227 262 270 272 280 283 289 292 295 293 293 293 291 289 289 289 294 296 302 303 302 303 300 302 297 296 297 299 298 295 294 292 291 289 288 287
144 145 145 145 147 153 182 265 278 279 282 288 291 291 291 296 295 295 294 294 294 293 292 295 302 305 302 302 299 300 297 297 296 299 300 298 296 297 294 292 291 287 285
139 139 141 141 141 151 228 281 286 289 289 289 291 290 294 299 298 299 302 301 300 299 299 300 304 305 301 305 301 302 299 297 303 303 301 299 299 295 294 293 289 287 286
134 134 133 131 134 158 276 290 296 294 293 292 290 289 292 296 296 302 306 304 305 307 305 306 301 299 301 308 305 305 308 308 304 305 299 299 297 295 295 293 292 289 288
130 129 127 124 126 4 280 293 301 300 298 295 294 295 294 295 293 294 295 299 306 307 304 298 295 307 309 310 310 313 307 310 302 304 298 297 299 298 293 293 292 291 290
123 121 122 123 150 309 278 309 313 306 300 298 299 300 301 300 297 299 299 303 303 302 299 298 305 301 302 308 312 312 307 306 308 310 303 300 299 294 294 293 293 294 293
122 121 119 110 324 306 291 319 311 303 300 298 299 300 300 301 304 305 307 305 301 300 301 298 298 302 307 306 303 300 302 301 297 298 302 294 300 295 295 294 295 295 293
118 125 117 345 319 310 297 311 314 310 304 299 296 297 301 303 308 307 303 304 306 305 301 304 301 301 297 295 293 298 300 297 293 292 295 290 300 294 298 298 298 297 291
118 102 9 332 314 301 301 320 327 318 306 303 302 304 305 303 307 306 312 311 308 307 308 302 300 299 300 300 300 299 294 294 293 296 300 292 296 304 304 297 295 297 296
105 42 337 301 299 311 316 326 328 317 311 313 313 311 307 309 306 312 314 313 309 309 309 307 306 304 303 301 300 296 296 298 296 298 301 303 301 310 304 294 299 302 301